Weather in Sopot

Bulgaria     42°39′13″N   24°45′20″E
temp.,
°C
wind,
m/s
gust,
m/s
humid.,
%
clouds,
%
prec.,
mm/h
press.,
hPa
HPBL,
m
19 september, sun
sun1900:00+10n23910 0.0 101652
03:00+10n12805 0.0 101628
06:00+10n127225 0.0 101526
09:00+15se00567 0.0 1014166
12:00+20wsw1646100 0.1 10131557
15:00+20wnw255269 1.3 10131267
18:00+18nne116677 0.8 101277
21:00+13ese027778 1.0 101314
20 september, mon
mon2000:00+13s117514 0.1 101318
03:00+13ssw117817 0.1 101313
06:00+13ssw11790 0.0 101317
09:00+17s116463 0.0 1012124
12:00+23ssw243957 0.0 10121741
15:00+23ssw143891 0.0 10101514
18:00+16nw2382100 1.6 101194
21:00+14n579557 2.6 1015493
21 september, tue
tue2100:00+12n349730 0.1 1017140
03:00+10n349740 0.1 1018102
06:00+9n349728 0.0 1019108
09:00+10n467948 0.0 1021439
12:00+14n3456100 0.0 1021937
15:00+16n444939 0.0 10201220
18:00+14nnw34535 0.0 1020815
21:00+10nnw126326 0.0 102246
22 september, wed
wed2200:00+9nnw226323 0.0 102348
03:00+8nnw116429 0.0 102321
06:00+6ene116833 0.0 102211
09:00+10nnw115825 0.0 1020766
12:00+13nnw2345100 0.0 10191594
15:00+13nnw5538100 0.0 10171720
18:00+9nnw4560100 0.0 1018795
21:00+5n359298 0.5 1020739
23 september, thu
thu2300:00+5n2492100 0.9 1020496
03:00+5n3593100 1.4 1019677
06:00+4nnw259193 0.3 1020431
09:00+5n238850 0.3 1020339
12:00+9n22579 0.1 10191141
15:00+12n334013 0.1 10171638
18:00+11n22421 0.0 1017955
21:00+6n12601 0.0 101914